Regional Weather Roundup
Issued by NWS

Home | Current Version | Previous Version | Text Only | Print | Product List | Glossary On
Versions: 1 2 3 4 5 6 7 8 9 10 11 12 13 14 15 16 17 18 19 20 21 22 23 24 25 26 27 28 29 30 31 32 33 34 35 36 37 38 39 40 41 42 43 44 45 46 47 48 49 50
000
ASUS46 KPQR 290710
RWROR

OREGON REGIONAL WEATHER ROUNDUP
NATIONAL WEATHER SERVICE PORTLAND OR
1100 PM PST FRI NOV 28 2014

NOTE: "FAIR" INDICATES FEW OR NO CLOUDS BELOW 12,000 FEET WITH
NO SIGNIFICANT WEATHER AND/OR OBSTRUCTIONS TO VISIBILITY.

ORZ001>013-290800-
NORTHWEST OREGON


CITY           SKY/WX    TMP DP  RH WIND       PRES   REMARKS
ASTORIA        CLOUDY    43  36  76 W7        29.60S
NEWPORT        MOCLDY    46  41  81 NW13G20   29.69S
PORTLAND       CLOUDY    45  39  79 CALM      29.62R
VANCOUVER WA   CLOUDY    44  38  79 CALM      29.61R
SCAPPOOSE      MOCLDY    40  38  93 CALM      29.60S
HILLSBORO      CLOUDY    43  41  93 CALM      29.61R
AURORA         LGT RAIN  45  43  93 S3        29.63R
MCMINNVILLE    PTCLDY    44  40  85 CALM      29.62F
SALEM          CLOUDY    46  40  79 CALM      29.63R
CORVALLIS      CLOUDY    46  39  76 W5        29.66R
EUGENE         LGT RAIN  48  44  86 NW5       29.66R
$$

ORZ021-028-290800-
SOUTHWEST OREGON


CITY           SKY/WX    TMP DP  RH WIND       PRES   REMARKS
NORTH BEND     CLOUDY    50  50 100 N6        29.71S
BROOKINGS      HVY RAIN  55  55 100 S10G16    29.70S VSB 3/4
ROSEBURG       RAIN      53  50  89 CALM      29.64S FOG
SEXTON SUMMIT  RAIN      42  42 100 SW15G24   29.64R VSB 1/4
MEDFORD        FOG       44  44 100 CALM      29.64S VSB 1
$$

ORZ014>016-041-290800-
COLUMBIA GORGE


CITY           SKY/WX    TMP DP  RH WIND       PRES   REMARKS
TROUTDALE      CLOUDY    45  40  82 SW3       29.60S
THE DALLES     PTCLDY    45  38  76 NW9       29.52R
$$

ORZ029>031-041-044-049-050-061>064-502-503-505>511-290800-
EASTERN OREGON


CITY           SKY/WX    TMP DP  RH WIND       PRES   REMARKS
REDMOND        LGT RAIN  42  40  92 SW8       29.51R
BEND           LGT RAIN  41  37  87 SW15      29.54R
PRINEVILLE     LGT RAIN  45  39  81 SW15G21   29.53R
KLAMATH FALLS  CLOUDY    42  37  82 S13       29.68F
LAKEVIEW       CLOUDY    39  36  87 S18G24    29.72F WCI  30
HERMISTON      CLOUDY    51  42  71 W21       29.42R
PENDLETON      CLOUDY    51  40  65 W13       29.40F
JOHN DAY       CLOUDY    49  36  60 SW5       29.52F
MEACHAM        CLOUDY    46  36  68 VRB3      29.43F
LA GRANDE      MOCLDY    52  30  43 SW8       29.43S
BAKER CITY     CLOUDY    48  34  58 SE8       29.49F
BURNS          PTCLDY    40  34  79 S5        29.60F
ROME             N/A     50  26  39 SW24G36   29.62F
ONTARIO        CLOUDY    53  37  54 VRB7      29.59S
$$



USA.gov is the U.S. government's official web portal to all federal, state and local government web resources and services.